カタログに戻る

GONETS M 22

運用中通信PO
NORAD 47229·PAYLOAD·🇷🇺 Russia

打ち上げ Dec 3, 2020 から Plesetsk Cosmodrome

Loading…

次のパス (今後24時間)

TLE

最新Source: Space-Track

元期: Sep 14, 2026, 15:01 UTC

1 47229U 20091C   26257.62621630 -.00000003  00000-0 -90909-4 0  9990
2 47229  82.4969 246.4219 0021485 344.5205  15.5215 12.42894601262135

AllMySatでGONETS M 22をリアルタイム追跡

Download on the App Store